This is the latest recevied weather packets stored in our database for station/object W0AKO. If no packets are shown the sender has not sent any weather packets the latest 10 day(s).
| Time | Temp. | Humidity | Pressure | Rain* | Wind** | Luminosity | Snow |
|---|---|---|---|---|---|---|---|
| 1778015100 | 22.22° C | 10% | 1011.4 hPa | 0 mm | - | 759 W/m² | - |
| 1778014796 | 22.78° C | 10% | 1011 hPa | 0 mm | - | 757 W/m² | - |
| 1778014495 | 22.78° C | 10% | 1011.5 hPa | 0 mm | - | 764 W/m² | - |
| 1778014191 | 22.22° C | 10% | 1011.3 hPa | 0 mm | - | 764 W/m² | - |
| 1778013890 | 22.22° C | 10% | 1011.5 hPa | 0 mm | - | 753 W/m² | - |
| 1778013586 | 22.22° C | 10% | 1011.6 hPa | 0 mm | - | 766 W/m² | - |
| 1778013283 | 21.67° C | 10% | 1011.5 hPa | 0 mm | - | 783 W/m² | - |
| 1778012979 | 21.67° C | 10% | 1011.5 hPa | 0 mm | - | 140 W/m² | - |
| 1778012676 | 22.78° C | 10% | 1011.7 hPa | 0 mm | - | 798 W/m² | - |
| 1778012372 | 21.67° C | 10% | 1011.7 hPa | 0 mm | - | 754 W/m² | - |
| 1778012069 | 21.67° C | 10% | 1011.7 hPa | 0 mm | - | 775 W/m² | - |
| 1778011767 | 21.67° C | 10% | 1011.6 hPa | 0 mm | - | 787 W/m² | - |
| 1778011464 | 22.22° C | 10% | 1011.6 hPa | 0 mm | - | 797 W/m² | - |
| 1778011160 | 22.22° C | 10% | 1011.5 hPa | 0 mm | - | 791 W/m² | - |
| 1778010857 | 21.67° C | 10% | 1011.6 hPa | 0 mm | - | 797 W/m² | - |
| 1778010555 | 21.67° C | 10% | 1011.7 hPa | 0 mm | - | 760 W/m² | - |
| 1778010252 | 21.11° C | 10% | 1011.9 hPa | 0 mm | - | 695 W/m² | - |
| 1778009952 | 21.67° C | 10% | 1012 hPa | 0 mm | - | 641 W/m² | - |
| 1778009650 | 21.11° C | 10% | 1011.8 hPa | 0 mm | - | 658 W/m² | - |
| 1778009347 | 21.11° C | 10% | 1012 hPa | 0 mm | - | 705 W/m² | - |
| 1778009045 | 22.22° C | 10% | 1012.2 hPa | 0 mm | - | 708 W/m² | - |
| 1778008743 | 21.67° C | 10% | 1012.1 hPa | 0 mm | - | 553 W/m² | - |
| 1778008441 | 21.11° C | 10% | 1012 hPa | 0 mm | - | 744 W/m² | - |
| 1778008138 | 21.11° C | 10% | 1012.3 hPa | 0 mm | - | 740 W/m² | - |
| 1778007833 | 22.22° C | 10% | 1012 hPa | 0 mm | - | 773 W/m² | - |
* Rain latest hour (hover to see other rain measurements)
** Current wind speed in m/s (hover to see current wind gust speed)